Total_Precipitation_Accumulation
0.03 0.07 0.07 0.07 0.05 0.10 0.51 1.14 1.23 1.02 0.62 0.41 0.33 0.19 0.15 0.15 0.14 0.21 0.14 0.03 0.03 0.04 0.10 0.06 0.00 0.00 0.00 0.00 0.00 0.00 0.00 0.00
0.05 0.07 0.09 0.07 0.08 0.18 0.42 0.81 1.14 0.62 0.35 0.20 0.28 0.32 0.19 0.15 0.16 0.23 0.19 0.06 0.09 0.14 0.13 0.06 0.01 0.01 0.02 0.00 0.00 0.00 0.00 0.00
0.02 0.04 0.03 0.04 0.11 0.36 0.44 0.38 0.41 0.31 0.27 0.18 0.14 0.21 0.24 0.12 0.09 0.11 0.09 0.10 0.08 0.14 0.14 0.11 0.05 0.05 0.04 0.03 0.02 0.02 0.01 0.00
0.03 0.03 0.03 0.01 0.02 0.18 0.18 0.07 0.11 0.14 0.12 0.21 0.19 0.25 0.27 0.24 0.10 0.11 0.08 0.09 0.07 0.14 0.08 0.09 0.16 0.07 0.04 0.06 0.05 0.04 0.03 0.03
0.00 0.00 0.00 0.01 0.06 0.25 0.11 0.10 0.11 0.11 0.10 0.13 0.17 0.26 0.20 0.16 0.13 0.06 0.07 0.04 0.07 0.20 0.09 0.05 0.17 0.14 0.05 0.05 0.06 0.07 0.05 0.05
0.00 0.00 0.00 0.02 0.07 0.20 0.16 0.12 0.20 0.15 0.25 0.28 0.22 0.24 0.25 0.21 0.11 0.08 0.07 0.06 0.09 0.18 0.10 0.08 0.08 0.17 0.13 0.08 0.07 0.08 0.08 0.06
0.00 0.00 0.01 0.03 0.11 0.17 0.29 0.31 0.21 0.19 0.34 0.41 0.26 0.22 0.18 0.29 0.27 0.15 0.16 0.12 0.16 0.30 0.28 0.18 0.11 0.09 0.15 0.12 0.10 0.09 0.08 0.06
0.00 0.02 0.04 0.04 0.08 0.13 0.18 0.32 0.42 0.27 0.25 0.23 0.21 0.18 0.21 0.16 0.16 0.20 0.23 0.19 0.22 0.24 0.24 0.14 0.12 0.13 0.11 0.13 0.15 0.13 0.15 0.16
0.00 0.01 0.02 0.05 0.11 0.08 0.06 0.29 0.41 0.48 0.33 0.16 0.14 0.08 0.06 0.07 0.14 0.19 0.13 0.12 0.10 0.16 0.16 0.16 0.13 0.15 0.15 0.13 0.15 0.17 0.16 0.16
0.00 0.00 0.01 0.04 0.07 0.05 0.09 0.10 0.27 0.37 0.24 0.12 0.06 0.03 0.04 0.07 0.09 0.08 0.07 0.06 0.09 0.09 0.07 0.14 0.16 0.14 0.11 0.12 0.11 0.11 0.11 0.11
0.00 0.01 0.06 0.02 0.04 0.05 0.16 0.12 0.11 0.24 0.27 0.23 0.07 0.07 0.09 0.11 0.11 0.17 0.17 0.17 0.16 0.12 0.08 0.05 0.06 0.07 0.08 0.08 0.06 0.07 0.08 0.07
0.00 0.01 0.04 0.05 0.12 0.11 0.08 0.20 0.47 0.36 0.30 0.16 0.11 0.13 0.26 0.35 0.25 0.30 0.28 0.28 0.27 0.25 0.20 0.12 0.09 0.09 0.11 0.09 0.07 0.07 0.07 0.09
0.00 0.00 0.00 0.02 0.02 0.02 0.02 0.09 0.18 0.26 0.31 0.28 0.44 0.61 0.54 0.68 0.64 0.62 0.58 0.37 0.29 0.26 0.28 0.25 0.21 0.16 0.17 0.16 0.15 0.14 0.15 0.18
0.00 0.00 0.00 0.00 0.00 0.02 0.09 0.10 0.22 0.46 0.49 0.53 0.78 0.67 0.69 0.60 0.59 0.48 0.36 0.24 0.22 0.16 0.16 0.19 0.22 0.21 0.22 0.20 0.17 0.18 0.26 0.35
0.00 0.00 0.00 0.00 0.04 0.11 0.09 0.17 0.22 0.44 0.45 0.59 0.38 0.48 0.45 0.42 0.31 0.25 0.18 0.11 0.12 0.06 0.08 0.12 0.15 0.14 0.13 0.15 0.24 0.41 0.40 0.30
0.00 0.00 0.00 0.01 0.05 0.05 0.04 0.06 0.11 0.22 0.27 0.22 0.20 0.39 0.36 0.27 0.18 0.20 0.18 0.13 0.18 0.17 0.14 0.14 0.10 0.09 0.14 0.26 0.31 0.24 0.19 0.21
0.00 0.00 0.01 0.01 0.01 0.02 0.03 0.06 0.12 0.15 0.12 0.06 0.12 0.17 0.22 0.16 0.11 0.11 0.15 0.19 0.22 0.29 0.29 0.29 0.27 0.34 0.40 0.27 0.19 0.14 0.12 0.11
0.00 0.00 0.00 0.00 0.00 0.00 0.01 0.06 0.05 0.05 0.07 0.10 0.10 0.13 0.16 0.11 0.11 0.11 0.12 0.19 0.23 0.22 0.23 0.34 0.50 0.45 0.35 0.23 0.17 0.11 0.09 0.08
0.00 0.00 0.00 0.00 0.00 0.00 0.01 0.02 0.02 0.03 0.04 0.05 0.06 0.09 0.11 0.12 0.12 0.13 0.18 0.28 0.26 0.30 0.32 0.33 0.25 0.20 0.29 0.24 0.19 0.08 0.06 0.07